Observations for Trim Patrick St
| Time | AQI | Temp °C | Hum % | Pres Pa | CO μg/m³ | H₂S μg/m³ | NO μg/m³ | NO₂ μg/m³ | O₃ μg/m³ | SO₂ μg/m³ | PM1 μg/m³ | PM2.5 μg/m³ | PM10 μg/m³ |
|---|---|---|---|---|---|---|---|---|---|---|---|---|---|
| Thursday 27 August 2026 | |||||||||||||
| 18:22 | 3 | 20.6 | 76 | 38,460 | 0 | 3.67 | 0.9 | 13.41 | 53.15 | 2.66 | 15.71 | 23.16 | 25.47 |
| 18:21 | 3 | 20.6 | 76 | 38,460 | 0 | 4.09 | 0.66 | 16.04 | 50.92 | 2.35 | 16.57 | 24.57 | 27.03 |
| 18:20 | 3 | 20.6 | 76 | 38,460 | 0 | 2.98 | 0.78 | 13.84 | 52.78 | 1.88 | 17.43 | 25.29 | 27.82 |
| 18:19 | 3 | 20.6 | 76 | 38,460 | 0 | 2.9 | 1.21 | 13.56 | 52.91 | 2.32 | 16.57 | 23.87 | 26.25 |
| 18:18 | 3 | 20.6 | 76 | 38,460 | 0 | 3.91 | 1.09 | 13.72 | 53.75 | 3.07 | 14.86 | 23.16 | 25.47 |
| 18:17 | 3 | 20.6 | 76 | 38,460 | 0 | 5.72 | 1.06 | 23.5 | 49.27 | 2.67 | 18.29 | 27.42 | 30.16 |
| 18:16 | 3 | 20.6 | 76 | 38,460 | 0 | 3.77 | 1.08 | 16.94 | 46.41 | 2.24 | 17.43 | 25.31 | 27.84 |
| 18:15 | 3 | 20.7 | 76 | 38,460 | 0 | 3.77 | 1.06 | 14.58 | 51 | 2.79 | 18.29 | 26.02 | 28.62 |
| 18:14 | 3 | 20.7 | 76 | 38,460 | 0 | 4.59 | 0.64 | 20.59 | 43.12 | 3.03 | 17.43 | 24.59 | 27.05 |
| 18:13 | 3 | 20.7 | 76 | 38,460 | 0 | 5.14 | 0.86 | 28.49 | 45.29 | 1.97 | 18.29 | 26.03 | 28.63 |
| 18:12 | 3 | 20.7 | 76 | 38,460 | 0 | 3.32 | 0.69 | 12.53 | 53.03 | 2.92 | 16.57 | 24.61 | 27.07 |
| 18:11 | 3 | 20.7 | 76 | 38,460 | 0 | 4.03 | 0.64 | 14.97 | 45.82 | 3.2 | 16.57 | 23.91 | 26.31 |
| 18:10 | 3 | 20.7 | 76 | 38,460 | 0 | 3.85 | 0.55 | 12.87 | 49.8 | 3.58 | 15.71 | 22.51 | 24.76 |
| 18:09 | 3 | 20.7 | 76 | 38,460 | 0 | 2.74 | 0.69 | 12.5 | 50 | 2.61 | 17.43 | 23.94 | 26.33 |
| 18:08 | 3 | 20.7 | 76 | 38,460 | 0 | 2.37 | 0.85 | 12.77 | 46.56 | 2.91 | 16.57 | 21.81 | 23.99 |
| 18:07 | 3 | 20.8 | 76 | 38,460 | 0 | 2.05 | 0.93 | 10.82 | 53.34 | 2.75 | 16.57 | 23.95 | 26.35 |
| 18:06 | 3 | 20.8 | 76 | 38,460 | 0 | 2.24 | 1.53 | 10.47 | 47.43 | 2.88 | 18.29 | 26.08 | 28.69 |
| 18:05 | 3 | 20.8 | 76 | 38,460 | 0 | 2.48 | 1.87 | 12.54 | 45.76 | 3.5 | 17.43 | 23.95 | 26.35 |
| 17:58 | 3 | 21 | 75 | 38,460 | 0 | 1.76 | 2.24 | 12.62 | 44.56 | 2.72 | 18.29 | 27.59 | 30.35 |
| 17:56 | 3 | 21 | 75 | 38,460 | 0 | 1.97 | 1.5 | 13.22 | 47.82 | 2.73 | 20 | 27.59 | 30.35 |